{"data":{"norad_id":58498,"epoch":"2026-05-25T04:26:43.211040Z","epoch_age_seconds":73232,"freshness":"FRESH","line1":"1 58498U 23187C   26145.18522235  .00001291  00000+0  15495-3 0  9990","line2":"2 58498  97.9291 229.3494 0009950 208.9357 151.1307 14.85733202133766","mean_motion":14.85733202,"eccentricity":0.000995,"inclination_deg":97.9291,"raan_deg":229.3494,"arg_perigee_deg":208.9357,"mean_anomaly_deg":151.1307,"bstar":0.00015495,"rev_number":13376,"period_min":96.92184290299,"perigee_km":604.33094616964,"apogee_km":618.23989678838,"semimajor_km":6989.422421479,"source":"CELESTRAK","updated_at":"2026-05-25T13:38:00.793831Z"}}